Time,TemperatureF,DewpointF,PressureIn,WindDirection,WindDirectionDegrees,WindSpeedMPH,WindSpeedGustMPH,Humidity,HourlyPrecipIn,Conditions,Clouds,dailyrainin,SoftwareType,DateUTC
2013-01-13 00:02:00,2.8,-1.4,29.95,NW,317,0.0,0.0,82,0.00,-RA,OVC,0.00,WeatherDisplay:10.37,2013-01-13 07:02:00,
2013-01-13 00:07:00,2.7,-1.5,29.95,NW,317,0.0,0.0,82,0.00,-RA,OVC,0.00,WeatherDisplay:10.37,2013-01-13 07:07:00,
2013-01-13 00:12:00,2.6,-1.6,29.95,NW,317,0.0,0.0,82,0.00,-RA,OVC,0.00,WeatherDisplay:10.37,2013-01-13 07:12:00,
2013-01-13 00:17:00,2.5,-1.5,29.95,NW,317,0.0,0.0,83,0.00,-RA,OVC,0.00,WeatherDisplay:10.37,2013-01-13 07:17:00,
2013-01-13 00:22:00,2.5,-1.5,29.95,NW,317,0.0,0.0,83,0.00,-RA,OVC,0.00,WeatherDisplay:10.37,2013-01-13 07:22:00,
2013-01-13 00:27:00,2.3,-1.9,29.95,NW,317,0.0,0.0,82,0.00,-RA,OVC,0.00,WeatherDisplay:10.37,2013-01-13 07:27:00,
2013-01-13 00:32:00,2.3,-1.7,29.95,NW,317,0.0,0.0,83,0.00,-RA,OVC,0.00,WeatherDisplay:10.37,2013-01-13 07:32:00,
2013-01-13 00:37:00,2.0,0.2,29.95,NW,317,0.0,0.0,92,0.00,-RA,OVC,0.00,WeatherDisplay:10.37,2013-01-13 07:37:00,
2013-01-13 00:42:00,1.9,-2.3,29.95,NW,317,0.0,0.0,82,0.00,-RA,OVC,0.00,WeatherDisplay:10.37,2013-01-13 07:42:00,
2013-01-13 00:47:00,1.9,-2.1,29.95,NW,317,0.0,0.0,83,0.00,-RA,OVC,0.00,WeatherDisplay:10.37,2013-01-13 07:47:00,
2013-01-13 00:52:00,1.8,-2.4,29.95,NW,317,0.0,0.0,82,0.00,-RA,OVC,0.00,WeatherDisplay:10.37,2013-01-13 07:52:00,
2013-01-13 00:57:00,1.7,-2.5,29.95,NW,317,0.0,0.0,82,0.00,-RA,OVC,0.00,WeatherDisplay:10.37,2013-01-13 07:57:00,
2013-01-13 01:02:00,1.6,-2.4,29.95,NW,317,0.0,0.0,83,0.00,-RA,OVC,0.00,WeatherDisplay:10.37,2013-01-13 08:02:00,
2013-01-13 01:07:00,1.6,-2.4,29.95,NW,317,0.0,0.0,83,0.00,-RA,OVC,0.00,WeatherDisplay:10.37,2013-01-13 08:07:00,
2013-01-13 01:12:00,1.7,-2.3,29.95,NW,317,0.0,0.0,83,0.00,-RA,OVC,0.00,WeatherDisplay:10.37,2013-01-13 08:12:00,
2013-01-13 01:17:00,1.7,-2.3,29.95,NW,317,0.0,0.0,83,0.00,-RA,OVC,0.00,WeatherDisplay:10.37,2013-01-13 08:17:00,
2013-01-13 01:22:00,1.8,-2.2,29.95,NW,317,0.0,0.0,83,0.00,-RA,OVC,0.00,WeatherDisplay:10.37,2013-01-13 08:22:00,
2013-01-13 01:27:00,1.7,-2.3,29.95,NW,317,0.0,0.0,83,0.00,-RA,OVC,0.00,WeatherDisplay:10.37,2013-01-13 08:27:00,
2013-01-13 01:32:00,1.8,-2.2,29.95,NW,317,0.0,0.0,83,0.00,-RA,OVC,0.00,WeatherDisplay:10.37,2013-01-13 08:32:00,
2013-01-13 01:37:00,1.9,-1.8,29.95,NW,317,0.0,0.0,84,0.00,-RA,OVC,0.00,WeatherDisplay:10.37,2013-01-13 08:37:00,
2013-01-13 01:42:00,2.1,-1.6,29.95,NW,317,0.0,0.0,84,0.00,-RA,OVC,0.00,WeatherDisplay:10.37,2013-01-13 08:42:00,
2013-01-13 01:47:00,2.2,-1.8,29.95,NW,317,0.0,0.0,83,0.00,-RA,OVC,0.00,WeatherDisplay:10.37,2013-01-13 08:47:00,
2013-01-13 01:52:00,2.3,-1.7,29.95,NW,317,0.0,0.0,83,0.00,-RA,OVC,0.00,WeatherDisplay:10.37,2013-01-13 08:52:00,
2013-01-13 01:57:00,2.3,-1.7,29.95,NW,317,0.0,0.0,83,0.00,-RA,OVC,0.00,WeatherDisplay:10.37,2013-01-13 08:57:00,
2013-01-13 02:02:00,2.3,-1.7,29.95,NW,317,0.0,0.0,83,0.00,-RA,OVC,0.00,WeatherDisplay:10.37,2013-01-13 09:02:00,
2013-01-13 02:07:00,2.3,-1.7,29.96,NW,317,0.0,0.0,83,0.00,-RA,OVC,0.00,WeatherDisplay:10.37,2013-01-13 09:07:00,
2013-01-13 02:12:00,2.2,-1.8,29.96,NW,317,0.0,0.0,83,0.00,-RA,OVC,0.00,WeatherDisplay:10.37,2013-01-13 09:12:00,
2013-01-13 02:17:00,2.1,-2.1,29.96,NW,317,0.0,0.0,82,0.00,-RA,OVC,0.00,WeatherDisplay:10.37,2013-01-13 09:17:00,
2013-01-13 02:22:00,2.0,-2.2,29.96,NW,317,0.0,0.0,82,0.00,-RA,OVC,0.00,WeatherDisplay:10.37,2013-01-13 09:22:00,
2013-01-13 02:27:00,1.9,-2.3,29.96,NW,317,0.0,0.0,82,0.00,-RA,OVC,0.00,WeatherDisplay:10.37,2013-01-13 09:27:00,
2013-01-13 02:32:00,1.9,-2.1,29.96,NW,317,0.0,0.0,83,0.00,-RA,OVC,0.00,WeatherDisplay:10.37,2013-01-13 09:32:00,
2013-01-13 02:37:00,1.8,-2.2,29.96,NW,317,0.0,0.0,83,0.00,-RA,OVC,0.00,WeatherDisplay:10.37,2013-01-13 09:37:00,
2013-01-13 02:42:00,1.8,-2.2,29.96,NW,317,0.0,0.0,83,0.00,-RA,OVC,0.00,WeatherDisplay:10.37,2013-01-13 09:42:00,
2013-01-13 02:47:00,1.8,-2.2,29.96,NW,317,0.0,0.0,83,0.00,-RA,OVC,0.00,WeatherDisplay:10.37,2013-01-13 09:47:00,
2013-01-13 02:52:00,2.0,-2.0,29.96,NW,317,0.0,0.0,83,0.00,-RA,OVC,0.00,WeatherDisplay:10.37,2013-01-13 09:52:00,
2013-01-13 02:57:00,2.0,-2.0,29.96,NW,317,0.0,0.0,83,0.00,-RA,OVC,0.00,WeatherDisplay:10.37,2013-01-13 09:57:00,
2013-01-13 03:02:00,2.0,-2.0,29.96,NW,317,0.0,0.0,83,0.00,-RA,OVC,0.00,WeatherDisplay:10.37,2013-01-13 10:02:00,
2013-01-13 03:07:00,1.9,-2.3,29.96,NW,317,0.0,0.0,82,0.00,-RA,OVC,0.00,WeatherDisplay:10.37,2013-01-13 10:07:00,
2013-01-13 03:12:00,1.8,-2.4,29.96,NW,317,0.0,0.0,82,0.00,-RA,OVC,0.00,WeatherDisplay:10.37,2013-01-13 10:12:00,
2013-01-13 03:17:00,1.8,-2.2,29.96,NW,317,0.0,0.0,83,0.00,-RA,OVC,0.00,WeatherDisplay:10.37,2013-01-13 10:17:00,
2013-01-13 03:22:00,1.8,-1.9,29.96,NW,317,0.0,0.0,84,0.00,-RA,OVC,0.00,WeatherDisplay:10.37,2013-01-13 10:22:00,
2013-01-13 03:27:00,1.9,-2.1,29.96,NW,317,0.0,0.0,83,0.00,-RA,OVC,0.00,WeatherDisplay:10.37,2013-01-13 10:27:00,
2013-01-13 03:32:00,1.8,-2.2,29.96,NW,317,0.0,0.0,83,0.00,-RA,OVC,0.00,WeatherDisplay:10.37,2013-01-13 10:32:00,
2013-01-13 03:37:00,1.9,-1.8,29.96,NW,317,0.0,0.0,84,0.00,-RA,OVC,0.00,WeatherDisplay:10.37,2013-01-13 10:37:00,
2013-01-13 03:42:00,2.0,-1.7,29.96,NW,317,0.0,0.0,84,0.00,-RA,OVC,0.00,WeatherDisplay:10.37,2013-01-13 10:42:00,
2013-01-13 03:47:00,2.1,-1.6,29.96,NW,317,0.0,0.0,84,0.00,-RA,OVC,0.00,WeatherDisplay:10.37,2013-01-13 10:47:00,
2013-01-13 03:52:00,2.2,-1.8,29.95,NW,317,0.0,0.0,83,0.00,-RA,OVC,0.00,WeatherDisplay:10.37,2013-01-13 10:52:00,
2013-01-13 03:57:00,2.2,-1.8,29.95,NW,317,0.0,0.0,83,0.00,-RA,OVC,0.00,WeatherDisplay:10.37,2013-01-13 10:57:00,
2013-01-13 04:02:00,2.2,-1.8,29.95,NW,317,0.0,0.0,83,0.00,-RA,OVC,0.00,WeatherDisplay:10.37,2013-01-13 11:02:00,
2013-01-13 04:07:00,2.3,-1.7,29.95,NW,317,0.0,0.0,83,0.00,-RA,OVC,0.00,WeatherDisplay:10.37,2013-01-13 11:07:00,
2013-01-13 04:12:00,2.3,-1.7,29.95,NW,317,0.0,0.0,83,0.00,-RA,OVC,0.00,WeatherDisplay:10.37,2013-01-13 11:12:00,
2013-01-13 04:17:00,2.3,-1.7,29.95,NW,317,0.0,0.0,83,0.00,-RA,OVC,0.00,WeatherDisplay:10.37,2013-01-13 11:17:00,
2013-01-13 04:22:00,2.4,-1.6,29.94,NW,317,0.0,0.0,83,0.00,-RA,OVC,0.00,WeatherDisplay:10.37,2013-01-13 11:22:00,
2013-01-13 04:27:00,2.4,-1.6,29.94,NW,317,0.0,0.0,83,0.00,-RA,OVC,0.00,WeatherDisplay:10.37,2013-01-13 11:27:00,
2013-01-13 04:32:00,2.4,-1.6,29.94,NW,317,0.0,0.0,83,0.00,-RA,OVC,0.00,WeatherDisplay:10.37,2013-01-13 11:32:00,
2013-01-13 04:37:00,2.5,-1.5,29.94,NW,317,0.0,0.0,83,0.00,-RA,OVC,0.00,WeatherDisplay:10.37,2013-01-13 11:37:00,
2013-01-13 04:42:00,2.5,-1.5,29.94,NW,317,0.0,0.0,83,0.00,-RA,OVC,0.00,WeatherDisplay:10.37,2013-01-13 11:42:00,
2013-01-13 04:47:00,2.4,-1.6,29.94,NW,317,0.0,0.0,83,0.00,-RA,OVC,0.00,WeatherDisplay:10.37,2013-01-13 11:47:00,
2013-01-13 04:52:00,2.4,-1.6,29.94,NW,317,0.0,0.0,83,0.00,-RA,OVC,0.00,WeatherDisplay:10.37,2013-01-13 11:52:00,
2013-01-13 04:57:00,2.4,-1.6,29.94,NW,317,0.0,0.0,83,0.00,-RA,OVC,0.00,WeatherDisplay:10.37,2013-01-13 11:57:00,
2013-01-13 05:02:00,2.4,-1.6,29.94,NW,317,0.0,0.0,83,0.00,-RA,OVC,0.00,WeatherDisplay:10.37,2013-01-13 12:02:00,
2013-01-13 05:07:00,2.2,-2.0,29.94,NW,317,0.0,0.0,82,0.00,-RA,OVC,0.00,WeatherDisplay:10.37,2013-01-13 12:07:00,
2013-01-13 05:12:00,2.1,-2.1,29.95,NW,317,0.0,0.0,82,0.00,-RA,OVC,0.00,WeatherDisplay:10.37,2013-01-13 12:12:00,
2013-01-13 05:17:00,2.0,-2.2,29.95,NW,317,0.0,0.0,82,0.00,-RA,OVC,0.00,WeatherDisplay:10.37,2013-01-13 12:17:00,
2013-01-13 05:22:00,1.9,-2.1,29.95,NW,317,0.0,0.0,83,0.00,-RA,OVC,0.00,WeatherDisplay:10.37,2013-01-13 12:22:00,
2013-01-13 05:27:00,1.9,-2.1,29.95,NW,317,0.0,0.0,83,0.00,-RA,OVC,0.00,WeatherDisplay:10.37,2013-01-13 12:27:00,
2013-01-13 05:32:00,1.8,-2.4,29.95,NW,317,0.0,0.0,82,0.00,-RA,OVC,0.00,WeatherDisplay:10.37,2013-01-13 12:32:00,
2013-01-13 05:37:00,1.7,-2.3,29.95,NW,317,0.0,0.0,83,0.00,-RA,OVC,0.00,WeatherDisplay:10.37,2013-01-13 12:37:00,
2013-01-13 05:42:00,1.6,-2.4,29.95,NW,317,0.0,0.0,83,0.00,-RA,OVC,0.00,WeatherDisplay:10.37,2013-01-13 12:42:00,
2013-01-13 05:47:00,1.7,-2.3,29.95,NW,317,0.0,0.0,83,0.00,-RA,OVC,0.00,WeatherDisplay:10.37,2013-01-13 12:47:00,
2013-01-13 05:52:00,1.6,-2.4,29.96,NW,317,0.0,0.0,83,0.00,-RA,OVC,0.00,WeatherDisplay:10.37,2013-01-13 12:52:00,
2013-01-13 05:57:00,1.6,-2.4,29.96,NW,317,0.0,0.0,83,0.00,-RA,OVC,0.00,WeatherDisplay:10.37,2013-01-13 12:57:00,
2013-01-13 06:02:00,1.6,-2.4,29.96,NW,317,0.0,0.0,83,0.00,-RA,OVC,0.00,WeatherDisplay:10.37,2013-01-13 13:02:00,
2013-01-13 06:07:00,1.5,-2.5,29.96,NW,317,0.0,0.0,83,0.00,-RA,OVC,0.00,WeatherDisplay:10.37,2013-01-13 13:07:00,
2013-01-13 06:12:00,1.4,-2.8,29.96,NW,317,0.0,0.0,82,0.00,-RA,OVC,0.00,WeatherDisplay:10.37,2013-01-13 13:12:00,
2013-01-13 06:17:00,1.3,-2.9,29.96,NW,317,0.0,0.0,82,0.00,-RA,OVC,0.00,WeatherDisplay:10.37,2013-01-13 13:17:00,
2013-01-13 06:22:00,1.3,-2.7,29.96,NW,317,0.0,0.0,83,0.00,-RA,OVC,0.00,WeatherDisplay:10.37,2013-01-13 13:22:00,
2013-01-13 06:27:00,1.4,-2.6,29.96,NW,317,0.0,0.0,83,0.00,-RA,OVC,0.00,WeatherDisplay:10.37,2013-01-13 13:27:00,
2013-01-13 06:32:00,1.4,-2.8,29.96,NW,317,0.0,0.0,82,0.00,-RA,OVC,0.00,WeatherDisplay:10.37,2013-01-13 13:32:00,
2013-01-13 06:37:00,1.4,-2.8,29.96,NW,317,0.0,0.0,82,0.00,-RA,OVC,0.00,WeatherDisplay:10.37,2013-01-13 13:37:00,
2013-01-13 06:42:00,1.4,-2.6,29.97,NW,317,0.0,0.0,83,0.00,-RA,OVC,0.00,WeatherDisplay:10.37,2013-01-13 13:42:00,
2013-01-13 06:47:00,1.4,-2.8,29.97,NW,317,0.0,0.0,82,0.00,-RA,OVC,0.00,WeatherDisplay:10.37,2013-01-13 13:47:00,
2013-01-13 06:52:00,1.3,-2.9,29.97,NW,317,0.0,0.0,82,0.00,-RA,OVC,0.00,WeatherDisplay:10.37,2013-01-13 13:52:00,
2013-01-13 06:57:00,1.1,-3.1,29.97,NW,317,0.0,0.0,82,0.00,-RA,OVC,0.00,WeatherDisplay:10.37,2013-01-13 13:57:00,
2013-01-13 07:02:00,1.0,-3.2,29.97,NW,317,0.0,0.0,82,0.00,-RA,OVC,0.00,WeatherDisplay:10.37,2013-01-13 14:02:00,
2013-01-13 07:07:00,1.0,-3.2,29.97,NW,317,0.0,0.0,82,0.00,-RA,OVC,0.00,WeatherDisplay:10.37,2013-01-13 14:07:00,
2013-01-13 07:12:00,0.9,-3.3,29.97,NW,317,0.0,0.0,82,0.00,-RA,OVC,0.00,WeatherDisplay:10.37,2013-01-13 14:12:00,
2013-01-13 07:17:00,0.7,-3.5,29.97,NW,317,0.0,0.0,82,0.00,-RA,OVC,0.00,WeatherDisplay:10.37,2013-01-13 14:17:00,
2013-01-13 07:22:00,0.7,-3.5,29.98,NW,317,0.0,0.0,82,0.00,-RA,OVC,0.00,WeatherDisplay:10.37,2013-01-13 14:22:00,
2013-01-13 07:27:00,0.7,-3.5,29.98,NW,317,0.0,0.0,82,0.00,-RA,OVC,0.00,WeatherDisplay:10.37,2013-01-13 14:27:00,
2013-01-13 07:32:00,0.7,-3.3,29.98,NW,317,0.0,0.0,83,0.00,-RA,OVC,0.00,WeatherDisplay:10.37,2013-01-13 14:32:00,
2013-01-13 07:37:00,0.8,-3.2,29.98,NW,317,0.0,0.0,83,0.00,-RA,OVC,0.00,WeatherDisplay:10.37,2013-01-13 14:37:00,
2013-01-13 07:42:00,0.8,-3.2,29.98,NW,317,0.0,0.0,83,0.00,-RA,OVC,0.00,WeatherDisplay:10.37,2013-01-13 14:42:00,
2013-01-13 07:47:00,1.1,-2.6,29.98,NW,317,0.0,0.0,84,0.00,-RA,OVC,0.00,WeatherDisplay:10.37,2013-01-13 14:47:00,
2013-01-13 07:52:00,1.6,-1.9,29.98,NW,317,0.0,0.0,85,0.00,-RA,OVC,0.00,WeatherDisplay:10.37,2013-01-13 14:52:00,
2013-01-13 07:57:00,2.1,-1.4,29.98,NW,317,0.0,0.0,85,0.00,-RA,OVC,0.00,WeatherDisplay:10.37,2013-01-13 14:57:00,
2013-01-13 08:02:00,2.6,-0.9,29.98,NW,317,0.0,0.6,85,0.00,-RA,OVC,0.00,WeatherDisplay:10.37,2013-01-13 15:02:00,
2013-01-13 08:07:00,2.8,-1.2,29.98,NW,317,0.0,0.0,83,0.00,-RA,OVC,0.00,WeatherDisplay:10.37,2013-01-13 15:07:00,
2013-01-13 08:12:00,3.3,-0.4,29.98,NW,317,0.0,0.0,84,0.00,-RA,OVC,0.00,WeatherDisplay:10.37,2013-01-13 15:12:00,
2013-01-13 08:17:00,3.9,0.1,29.98,NW,317,0.0,0.0,84,0.00,-RA,OVC,0.00,WeatherDisplay:10.37,2013-01-13 15:17:00,
2013-01-13 08:22:00,4.3,0.3,29.98,NW,317,0.0,0.0,83,0.00,-RA,OVC,0.00,WeatherDisplay:10.37,2013-01-13 15:22:00,
2013-01-13 08:27:00,4.5,0.2,29.98,NW,317,1.1,1.1,82,0.00,-RA,OVC,0.00,WeatherDisplay:10.37,2013-01-13 15:27:00,
2013-01-13 08:32:00,4.8,0.5,29.98,NW,317,0.0,0.3,82,0.00,-RA,OVC,0.00,WeatherDisplay:10.37,2013-01-13 15:32:00,
2013-01-13 08:37:00,5.1,0.5,29.98,NW,317,0.0,0.4,81,0.00,-RA,OVC,0.00,WeatherDisplay:10.37,2013-01-13 15:37:00,
2013-01-13 08:42:00,5.5,0.9,29.98,NW,317,0.0,0.0,81,0.00,-RA,OVC,0.00,WeatherDisplay:10.37,2013-01-13 15:42:00,
2013-01-13 08:47:00,6.0,1.4,29.98,NW,317,2.0,2.0,81,0.00,-RA,OVC,0.00,WeatherDisplay:10.37,2013-01-13 15:47:00,
2013-01-13 08:52:00,6.5,1.6,29.98,NW,317,1.0,1.0,80,0.00,-RA,OVC,0.00,WeatherDisplay:10.37,2013-01-13 15:52:00,
2013-01-13 08:57:00,7.1,2.0,29.98,NW,317,0.0,0.0,79,0.00,-RA,OVC,0.00,WeatherDisplay:10.37,2013-01-13 15:57:00,
2013-01-13 09:02:00,7.7,2.5,29.98,NW,317,1.1,0.0,79,0.00,-RA,OVC,0.00,WeatherDisplay:10.37,2013-01-13 16:02:00,
2013-01-13 09:07:00,8.1,2.7,29.98,NW,317,2.3,2.3,78,0.00,-RA,OVC,0.00,WeatherDisplay:10.37,2013-01-13 16:07:00,
2013-01-13 09:12:00,8.6,2.6,29.98,NW,317,3.5,0.0,76,0.00,-RA,OVC,0.00,WeatherDisplay:10.37,2013-01-13 16:12:00,
2013-01-13 09:17:00,8.9,2.6,29.98,NW,317,2.3,2.3,75,0.00,-RA,OVC,0.00,WeatherDisplay:10.37,2013-01-13 16:17:00,
2013-01-13 09:22:00,9.1,2.2,29.98,NW,317,3.5,3.5,73,0.00,-RA,OVC,0.00,WeatherDisplay:10.37,2013-01-13 16:22:00,
2013-01-13 09:27:00,9.3,2.1,29.98,NW,317,3.5,3.5,72,0.00,-RA,OVC,0.00,WeatherDisplay:10.37,2013-01-13 16:27:00,
2013-01-13 09:32:00,9.6,3.0,29.98,NW,317,1.1,1.2,74,0.00,-RA,OVC,0.00,WeatherDisplay:10.37,2013-01-13 16:32:00,
2013-01-13 09:37:00,10.2,3.0,29.98,NW,317,2.3,2.3,72,0.00,-RA,OVC,0.00,WeatherDisplay:10.37,2013-01-13 16:37:00,
2013-01-13 09:42:00,10.7,3.4,29.98,NW,317,2.0,2.0,72,0.00,-RA,OVC,0.00,WeatherDisplay:10.37,2013-01-13 16:42:00,
2013-01-13 09:47:00,11.1,3.2,29.98,NW,317,2.3,2.3,70,0.00,-RA,OVC,0.00,WeatherDisplay:10.37,2013-01-13 16:47:00,
2013-01-13 09:52:00,11.3,2.8,29.98,NW,317,1.1,0.0,68,0.00,-RA,OVC,0.00,WeatherDisplay:10.37,2013-01-13 16:52:00,
2013-01-13 09:57:00,11.5,2.7,29.98,NW,317,3.5,3.5,67,0.00,-RA,OVC,0.00,WeatherDisplay:10.37,2013-01-13 16:57:00,
2013-01-13 10:02:00,11.6,3.1,29.98,NW,317,2.3,2.3,68,0.00,-RA,OVC,0.00,WeatherDisplay:10.37,2013-01-13 17:02:00,
2013-01-13 10:07:00,11.7,2.5,29.98,NW,317,3.5,3.5,66,0.00,-RA,OVC,0.00,WeatherDisplay:10.37,2013-01-13 17:07:00,
2013-01-13 10:12:00,11.7,2.2,29.98,NW,317,3.5,3.5,65,0.00,-RA,OVC,0.00,WeatherDisplay:10.37,2013-01-13 17:12:00,
2013-01-13 10:17:00,11.4,1.9,29.98,NW,317,3.5,3.5,65,0.00,-RA,OVC,0.00,WeatherDisplay:10.37,2013-01-13 17:17:00,
2013-01-13 10:22:00,11.3,2.1,29.98,NW,317,1.1,0.0,66,0.00,-RA,OVC,0.00,WeatherDisplay:10.37,2013-01-13 17:22:00,
2013-01-13 10:27:00,11.2,1.4,29.98,NW,322,3.5,3.5,64,0.00,-RA,OVC,0.00,WeatherDisplay:10.37,2013-01-13 17:27:00,
2013-01-13 10:32:00,11.0,1.5,29.99,NW,322,2.3,0.0,65,0.00,-RA,OVC,0.00,WeatherDisplay:10.37,2013-01-13 17:32:00,
2013-01-13 10:37:00,11.0,1.2,29.99,NW,322,4.6,4.6,64,0.00,-RA,OVC,0.00,WeatherDisplay:10.37,2013-01-13 17:37:00,
2013-01-13 10:42:00,11.2,1.7,29.99,NW,322,2.3,2.3,65,0.00,-RA,OVC,0.00,WeatherDisplay:10.37,2013-01-13 17:42:00,
2013-01-13 10:47:00,11.5,1.3,29.99,NW,322,3.5,0.0,63,0.00,-RA,OVC,0.00,WeatherDisplay:10.37,2013-01-13 17:47:00,
2013-01-13 10:52:00,11.8,2.0,29.99,NW,322,2.3,2.3,64,0.00,-RA,OVC,0.00,WeatherDisplay:10.37,2013-01-13 17:52:00,
2013-01-13 10:57:00,12.1,2.2,29.99,NW,314,3.5,3.5,64,0.00,-RA,OVC,0.00,WeatherDisplay:10.37,2013-01-13 17:57:00,
2013-01-13 11:02:00,11.9,1.7,29.99,NW,313,2.3,2.3,63,0.00,-RA,OVC,0.00,WeatherDisplay:10.37,2013-01-13 18:02:00,
2013-01-13 11:07:00,12.3,2.4,29.99,NW,321,3.5,3.5,64,0.00,-RA,OVC,0.00,WeatherDisplay:10.37,2013-01-13 18:07:00,
2013-01-13 11:12:00,12.6,2.0,29.98,WNW,300,4.6,4.6,62,0.00,-RA,OVC,0.00,WeatherDisplay:10.37,2013-01-13 18:12:00,
2013-01-13 11:17:00,12.7,2.5,29.98,WNW,300,2.3,0.0,63,0.00,-RA,OVC,0.00,WeatherDisplay:10.37,2013-01-13 18:17:00,
2013-01-13 11:22:00,13.4,2.8,29.98,WNW,300,3.5,3.5,62,0.00,-RA,OVC,0.00,WeatherDisplay:10.37,2013-01-13 18:22:00,
2013-01-13 11:27:00,13.8,2.8,29.98,WNW,300,3.5,3.5,61,0.00,-RA,OVC,0.00,WeatherDisplay:10.37,2013-01-13 18:27:00,
2013-01-13 11:32:00,14.3,2.9,29.98,WNW,298,4.6,4.6,60,0.00,-RA,OVC,0.00,WeatherDisplay:10.37,2013-01-13 18:32:00,
2013-01-13 11:37:00,14.3,2.2,29.98,WNW,294,4.6,4.6,58,0.00,-RA,OVC,0.00,WeatherDisplay:10.37,2013-01-13 18:37:00,
2013-01-13 11:42:00,14.1,2.0,29.97,WNW,292,2.3,0.0,58,0.00,-RA,OVC,0.00,WeatherDisplay:10.37,2013-01-13 18:42:00,
2013-01-13 11:47:00,14.1,2.0,29.97,WNW,292,3.5,3.5,58,0.00,-RA,OVC,0.00,WeatherDisplay:10.37,2013-01-13 18:47:00,
2013-01-13 11:52:00,14.2,1.7,29.97,NW,317,5.8,0.0,57,0.00,-RA,OVC,0.00,WeatherDisplay:10.37,2013-01-13 18:52:00,
2013-01-13 11:57:00,14.5,2.4,29.97,NW,308,3.5,3.5,58,0.00,-RA,OVC,0.00,WeatherDisplay:10.37,2013-01-13 18:57:00,
2013-01-13 12:02:00,14.3,1.8,29.97,West,260,4.6,4.6,57,0.00,-RA,OVC,0.00,WeatherDisplay:10.37,2013-01-13 19:02:00,
2013-01-13 12:07:00,14.8,2.3,29.97,West,271,3.5,3.5,57,0.00,-RA,OVC,0.00,WeatherDisplay:10.37,2013-01-13 19:07:00,
2013-01-13 12:12:00,15.1,2.2,29.97,West,259,3.5,3.5,56,0.00,-RA,OVC,0.00,WeatherDisplay:10.37,2013-01-13 19:12:00,
2013-01-13 12:17:00,15.5,2.6,29.97,North,350,4.6,4.6,56,0.00,-RA,OVC,0.00,WeatherDisplay:10.37,2013-01-13 19:17:00,
2013-01-13 12:22:00,15.8,2.1,29.97,NNW,333,6.9,6.9,54,0.00,-RA,OVC,0.00,WeatherDisplay:10.37,2013-01-13 19:22:00,
2013-01-13 12:27:00,15.4,2.1,29.97,SSW,213,3.5,3.5,55,0.00,-RA,OVC,0.00,WeatherDisplay:10.37,2013-01-13 19:27:00,
2013-01-13 12:32:00,15.2,1.5,29.97,SSW,213,4.6,4.6,54,0.00,-RA,OVC,0.00,WeatherDisplay:10.37,2013-01-13 19:32:00,
2013-01-13 12:37:00,14.9,1.6,29.97,West,265,3.5,3.5,55,0.00,-RA,OVC,0.00,WeatherDisplay:10.37,2013-01-13 19:37:00,
2013-01-13 12:42:00,15.1,2.6,29.95,West,263,1.1,1.1,57,0.00,-RA,OVC,0.00,WeatherDisplay:10.37,2013-01-13 19:42:00,
2013-01-13 12:47:00,15.2,2.3,29.95,South,177,6.9,6.9,56,0.00,-RA,OVC,0.00,WeatherDisplay:10.37,2013-01-13 19:47:00,
2013-01-13 12:52:00,15.4,2.5,29.95,West,279,3.5,3.5,56,0.00,-RA,OVC,0.00,WeatherDisplay:10.37,2013-01-13 19:52:00,
2013-01-13 12:57:00,15.3,2.8,29.95,West,265,5.8,5.8,57,0.00,-RA,OVC,0.00,WeatherDisplay:10.37,2013-01-13 19:57:00,
2013-01-13 13:02:00,15.1,2.6,29.95,West,264,3.5,3.5,57,0.00,-RA,OVC,0.00,WeatherDisplay:10.37,2013-01-13 20:02:00,
2013-01-13 13:07:00,14.9,2.4,29.95,SSW,213,6.9,6.9,57,0.00,-RA,OVC,0.00,WeatherDisplay:10.37,2013-01-13 20:07:00,
2013-01-13 13:12:00,14.9,2.4,29.95,SW,221,3.5,3.5,57,0.00,-RA,OVC,0.00,WeatherDisplay:10.37,2013-01-13 20:12:00,
2013-01-13 13:17:00,14.8,2.3,29.95,West,261,6.9,6.9,57,0.00,-RA,OVC,0.00,WeatherDisplay:10.37,2013-01-13 20:17:00,
2013-01-13 13:22:00,14.8,2.3,29.95,WSW,253,5.8,5.8,57,0.00,-RA,OVC,0.00,WeatherDisplay:10.37,2013-01-13 20:22:00,
2013-01-13 13:27:00,14.8,2.3,29.95,West,259,3.5,3.5,57,0.00,-RA,OVC,0.00,WeatherDisplay:10.37,2013-01-13 20:27:00,
2013-01-13 13:32:00,14.8,2.3,29.95,West,259,4.6,4.6,57,0.00,-RA,OVC,0.00,WeatherDisplay:10.37,2013-01-13 20:32:00,
2013-01-13 13:37:00,14.7,2.2,29.95,SW,223,6.9,6.9,57,0.00,-RA,OVC,0.00,WeatherDisplay:10.37,2013-01-13 20:37:00,
2013-01-13 13:42:00,14.6,2.1,29.95,West,271,3.5,4.6,57,0.00,-RA,OVC,0.00,WeatherDisplay:10.37,2013-01-13 20:42:00,
2013-01-13 13:47:00,14.4,2.3,29.95,SW,223,4.6,4.6,58,0.00,-RA,OVC,0.00,WeatherDisplay:10.37,2013-01-13 20:47:00,
2013-01-13 13:52:00,14.7,2.6,29.95,WSW,244,4.0,4.0,58,0.00,-RA,OVC,0.00,WeatherDisplay:10.37,2013-01-13 20:52:00,
2013-01-13 13:57:00,14.8,2.3,29.95,WSW,246,3.5,3.5,57,0.00,-RA,OVC,0.00,WeatherDisplay:10.37,2013-01-13 20:57:00,
2013-01-13 14:02:00,14.9,2.4,29.95,WSW,250,3.5,3.5,57,0.00,-RA,OVC,0.00,WeatherDisplay:10.37,2013-01-13 21:02:00,
2013-01-13 14:07:00,14.9,2.0,29.96,WSW,255,4.0,4.0,56,0.00,-RA,OVC,0.00,WeatherDisplay:10.37,2013-01-13 21:07:00,
2013-01-13 14:12:00,14.9,2.4,29.96,West,279,3.5,4.4,57,0.00,-RA,OVC,0.00,WeatherDisplay:10.37,2013-01-13 21:12:00,
2013-01-13 14:17:00,14.8,2.3,29.96,WSW,244,9.2,9.2,57,0.00,-RA,OVC,0.00,WeatherDisplay:10.37,2013-01-13 21:17:00,
2013-01-13 14:22:00,14.7,1.8,29.96,West,281,9.2,9.2,56,0.00,-RA,OVC,0.00,WeatherDisplay:10.37,2013-01-13 21:22:00,
2013-01-13 14:27:00,14.6,1.7,29.96,WNW,284,2.3,2.3,56,0.00,-RA,OVC,0.00,WeatherDisplay:10.37,2013-01-13 21:27:00,
2013-01-13 14:32:00,14.6,2.1,29.97,West,279,5.0,5.0,57,0.00,-RA,OVC,0.00,WeatherDisplay:10.37,2013-01-13 21:32:00,
2013-01-13 14:37:00,14.5,2.0,29.97,West,263,3.5,3.5,57,0.00,-RA,OVC,0.00,WeatherDisplay:10.37,2013-01-13 21:37:00,
2013-01-13 14:42:00,14.5,2.4,29.97,West,265,3.0,3.0,58,0.00,-RA,OVC,0.00,WeatherDisplay:10.37,2013-01-13 21:42:00,
2013-01-13 14:47:00,14.6,2.1,29.97,West,277,3.5,3.5,57,0.00,-RA,OVC,0.00,WeatherDisplay:10.37,2013-01-13 21:47:00,
2013-01-13 14:52:00,14.7,1.8,29.97,West,269,5.8,5.8,56,0.00,-RA,OVC,0.00,WeatherDisplay:10.37,2013-01-13 21:52:00,
2013-01-13 14:57:00,14.4,1.9,29.97,WNW,286,9.2,9.2,57,0.00,-RA,OVC,0.00,WeatherDisplay:10.37,2013-01-13 21:57:00,
2013-01-13 15:02:00,14.4,2.3,29.98,West,277,9.2,9.2,58,0.00,-RA,OVC,0.00,WeatherDisplay:10.37,2013-01-13 22:02:00,
2013-01-13 15:07:00,14.3,2.2,29.98,West,270,3.5,3.5,58,0.00,-RA,OVC,0.00,WeatherDisplay:10.37,2013-01-13 22:07:00,
2013-01-13 15:12:00,14.2,1.7,29.98,West,279,6.9,6.9,57,0.00,-RA,OVC,0.00,WeatherDisplay:10.37,2013-01-13 22:12:00,
2013-01-13 15:17:00,14.2,2.5,29.98,West,276,3.5,3.5,59,0.00,-RA,OVC,0.00,WeatherDisplay:10.37,2013-01-13 22:17:00,
2013-01-13 15:22:00,14.2,2.8,29.98,West,273,3.5,3.5,60,0.00,-RA,OVC,0.00,WeatherDisplay:10.37,2013-01-13 22:22:00,
2013-01-13 15:27:00,14.2,2.5,29.98,WNW,286,4.6,4.6,59,0.00,-RA,OVC,0.00,WeatherDisplay:10.37,2013-01-13 22:27:00,
2013-01-13 15:32:00,14.0,2.7,29.98,West,277,3.5,3.5,60,0.00,-RA,OVC,0.00,WeatherDisplay:10.37,2013-01-13 22:32:00,
2013-01-13 15:37:00,13.8,2.1,29.98,West,276,3.5,4.9,59,0.00,-RA,OVC,0.00,WeatherDisplay:10.37,2013-01-13 22:37:00,
2013-01-13 15:42:00,13.5,2.2,29.98,WNW,288,5.8,5.8,60,0.00,-RA,OVC,0.00,WeatherDisplay:10.37,2013-01-13 22:42:00,
2013-01-13 15:47:00,13.4,2.4,29.98,West,275,4.6,4.6,61,0.00,-RA,OVC,0.00,WeatherDisplay:10.37,2013-01-13 22:47:00,
2013-01-13 15:52:00,13.4,2.4,29.98,West,267,7.0,7.0,61,0.00,-RA,OVC,0.00,WeatherDisplay:10.37,2013-01-13 22:52:00,
2013-01-13 15:57:00,13.4,2.8,29.98,West,273,3.5,3.5,62,0.00,-RA,OVC,0.00,WeatherDisplay:10.37,2013-01-13 22:57:00,
2013-01-13 16:02:00,13.4,2.8,29.98,WNW,285,3.5,3.5,62,0.00,-RA,OVC,0.00,WeatherDisplay:10.37,2013-01-13 23:02:00,
2013-01-13 16:07:00,13.4,2.8,29.98,WNW,294,4.6,4.6,62,0.00,-RA,OVC,0.00,WeatherDisplay:10.37,2013-01-13 23:07:00,
2013-01-13 16:12:00,13.2,2.6,29.98,WNW,300,3.5,3.5,62,0.00,-RA,OVC,0.00,WeatherDisplay:10.37,2013-01-13 23:12:00,
2013-01-13 16:17:00,12.9,2.3,29.98,WNW,290,3.5,3.5,62,0.00,-RA,OVC,0.00,WeatherDisplay:10.37,2013-01-13 23:17:00,
2013-01-13 16:22:00,12.6,2.4,29.99,West,280,4.6,4.6,63,0.00,-RA,OVC,0.00,WeatherDisplay:10.37,2013-01-13 23:22:00,
2013-01-13 16:27:00,12.5,2.6,29.99,West,277,6.9,6.9,64,0.00,-RA,OVC,0.00,WeatherDisplay:10.37,2013-01-13 23:27:00,
2013-01-13 16:32:00,12.3,2.4,29.99,West,276,5.8,5.8,64,0.00,-RA,OVC,0.00,WeatherDisplay:10.37,2013-01-13 23:32:00,
2013-01-13 16:37:00,12.2,2.3,29.99,West,277,3.5,3.5,64,0.00,-RA,OVC,0.00,WeatherDisplay:10.37,2013-01-13 23:37:00,
2013-01-13 16:42:00,12.1,2.6,30.00,West,277,2.3,2.3,65,0.00,-RA,OVC,0.00,WeatherDisplay:10.37,2013-01-13 23:42:00,
2013-01-13 16:47:00,12.1,2.6,30.00,West,276,3.5,3.5,65,0.00,-RA,OVC,0.00,WeatherDisplay:10.37,2013-01-13 23:47:00,
2013-01-13 16:52:00,12.0,1.8,30.00,West,276,3.5,0.0,63,0.00,-RA,OVC,0.00,WeatherDisplay:10.37,2013-01-13 23:52:00,
2013-01-13 16:57:00,12.0,1.8,30.00,West,276,2.3,2.3,63,0.00,-RA,OVC,0.00,WeatherDisplay:10.37,2013-01-13 23:57:00,
2013-01-13 17:02:00,11.9,1.7,30.00,West,276,1.1,1.1,63,0.00,-RA,OVC,0.00,WeatherDisplay:10.37,2013-01-14 00:02:00,
2013-01-13 17:07:00,11.9,1.7,30.00,West,276,1.1,1.1,63,0.00,-RA,OVC,0.00,WeatherDisplay:10.37,2013-01-14 00:07:00,
2013-01-13 17:12:00,11.9,1.7,30.00,West,276,3.5,3.5,63,0.00,-RA,OVC,0.00,WeatherDisplay:10.37,2013-01-14 00:12:00,
2013-01-13 17:18:00,11.8,1.6,30.00,West,276,2.0,2.0,63,0.00,-RA,OVC,0.00,WeatherDisplay:10.37,2013-01-14 00:18:00,
2013-01-13 17:23:00,11.7,1.5,30.00,West,279,3.5,3.5,63,0.00,-RA,OVC,0.00,WeatherDisplay:10.37,2013-01-14 00:23:00,
2013-01-13 17:28:00,11.6,1.4,30.00,West,279,1.1,1.1,63,0.00,-RA,OVC,0.00,WeatherDisplay:10.37,2013-01-14 00:28:00,
2013-01-13 17:33:00,11.6,1.8,30.00,West,279,3.0,3.0,64,0.00,-RA,OVC,0.00,WeatherDisplay:10.37,2013-01-14 00:33:00,
2013-01-13 17:38:00,11.5,1.7,30.00,WNW,290,3.5,3.5,64,0.00,-RA,OVC,0.00,WeatherDisplay:10.37,2013-01-14 00:38:00,
2013-01-13 17:43:00,11.4,1.6,30.00,WNW,290,1.1,1.1,64,0.00,-RA,OVC,0.00,WeatherDisplay:10.37,2013-01-14 00:43:00,
2013-01-13 17:48:00,11.4,1.2,30.00,WNW,290,3.5,3.5,63,0.00,-RA,OVC,0.00,WeatherDisplay:10.37,2013-01-14 00:48:00,
2013-01-13 17:53:00,11.3,0.8,30.00,WNW,292,2.3,2.3,62,0.00,-RA,OVC,0.00,WeatherDisplay:10.37,2013-01-14 00:53:00,
2013-01-13 17:58:00,11.3,0.8,30.00,WNW,292,2.3,0.0,62,0.00,-RA,OVC,0.00,WeatherDisplay:10.37,2013-01-14 00:58:00,
2013-01-13 18:03:00,11.2,0.4,30.00,WNW,292,3.5,0.0,61,0.00,-RA,OVC,0.00,WeatherDisplay:10.37,2013-01-14 01:03:00,
2013-01-13 18:08:00,11.1,0.6,30.00,WNW,298,4.6,4.6,62,0.00,-RA,OVC,0.00,WeatherDisplay:10.37,2013-01-14 01:08:00,
2013-01-13 18:13:00,11.0,0.5,30.00,WNW,298,2.0,2.0,62,0.00,-RA,OVC,0.00,WeatherDisplay:10.37,2013-01-14 01:13:00,
2013-01-13 18:18:00,10.9,0.4,30.00,NW,304,4.6,4.6,62,0.00,-RA,OVC,0.00,WeatherDisplay:10.37,2013-01-14 01:18:00,
2013-01-13 18:23:00,10.8,0.3,30.00,NW,304,3.5,0.0,62,0.00,-RA,OVC,0.00,WeatherDisplay:10.37,2013-01-14 01:23:00,
2013-01-13 18:28:00,10.7,0.2,30.00,WNW,298,4.6,0.0,62,0.00,-RA,OVC,0.00,WeatherDisplay:10.37,2013-01-14 01:28:00,
2013-01-13 18:33:00,10.5,-0.3,30.00,WNW,298,3.5,0.0,61,0.00,-RA,OVC,0.00,WeatherDisplay:10.37,2013-01-14 01:33:00,
2013-01-13 18:38:00,10.4,-0.4,30.00,WNW,297,2.3,2.3,61,0.00,-RA,OVC,0.00,WeatherDisplay:10.37,2013-01-14 01:38:00,
2013-01-13 18:43:00,10.1,-0.3,30.00,WNW,297,1.1,1.1,62,0.00,-RA,OVC,0.00,WeatherDisplay:10.37,2013-01-14 01:43:00,
2013-01-13 18:48:00,10.0,-0.1,30.00,WNW,297,3.5,3.5,63,0.00,-RA,OVC,0.00,WeatherDisplay:10.37,2013-01-14 01:48:00,
2013-01-13 18:53:00,9.8,-0.6,30.00,WNW,297,1.1,1.1,62,0.00,-RA,OVC,0.00,WeatherDisplay:10.37,2013-01-14 01:53:00,
2013-01-13 18:58:00,9.8,-0.6,30.00,WNW,297,2.3,2.3,62,0.00,-RA,OVC,0.00,WeatherDisplay:10.37,2013-01-14 01:58:00,
2013-01-13 19:03:00,9.8,-0.3,30.00,WNW,297,1.1,0.0,63,0.00,-RA,OVC,0.00,WeatherDisplay:10.37,2013-01-14 02:03:00,
2013-01-13 19:08:00,9.7,-0.4,30.00,WNW,297,2.3,2.3,63,0.00,-RA,OVC,0.00,WeatherDisplay:10.37,2013-01-14 02:08:00,
2013-01-13 19:13:00,9.7,-0.7,30.00,WNW,297,2.3,2.3,62,0.00,-RA,OVC,0.00,WeatherDisplay:10.37,2013-01-14 02:13:00,
2013-01-13 19:18:00,9.7,-0.4,30.00,WNW,297,0.0,0.0,63,0.00,-RA,OVC,0.00,WeatherDisplay:10.37,2013-01-14 02:18:00,
2013-01-13 19:23:00,9.6,-0.1,30.00,WNW,300,3.5,3.5,64,0.00,-RA,OVC,0.00,WeatherDisplay:10.37,2013-01-14 02:23:00,
2013-01-13 19:28:00,9.6,0.2,30.00,WNW,300,2.3,2.3,65,0.00,-RA,OVC,0.00,WeatherDisplay:10.37,2013-01-14 02:28:00,
2013-01-13 19:33:00,9.5,1.1,30.00,WNW,302,0.0,0.0,68,0.00,-RA,OVC,0.00,WeatherDisplay:10.37,2013-01-14 02:33:00,
2013-01-13 19:38:00,9.3,1.2,30.00,WNW,301,2.3,2.3,69,0.00,-RA,OVC,0.00,WeatherDisplay:10.37,2013-01-14 02:38:00,
2013-01-13 19:43:00,9.2,1.4,30.00,WNW,301,2.3,0.0,70,0.00,-RA,OVC,0.00,WeatherDisplay:10.37,2013-01-14 02:43:00,
2013-01-13 19:48:00,9.0,1.5,30.00,WNW,302,0.0,0.0,71,0.00,-RA,OVC,0.00,WeatherDisplay:10.37,2013-01-14 02:48:00,
2013-01-13 19:53:00,8.9,1.7,30.00,WNW,302,0.0,0.0,72,0.00,-RA,OVC,0.00,WeatherDisplay:10.37,2013-01-14 02:53:00,
2013-01-13 19:58:00,8.9,2.0,30.00,WNW,302,3.5,3.5,73,0.00,-RA,OVC,0.00,WeatherDisplay:10.37,2013-01-14 02:58:00,
2013-01-13 20:03:00,8.9,2.3,30.00,WNW,302,3.5,0.0,74,0.00,-RA,OVC,0.00,WeatherDisplay:10.37,2013-01-14 03:03:00,
2013-01-13 20:08:00,8.9,2.6,30.00,WNW,302,2.3,0.0,75,0.00,-RA,OVC,0.00,WeatherDisplay:10.37,2013-01-14 03:08:00,
2013-01-13 20:13:00,8.8,2.5,30.05,WNW,302,0.0,0.2,75,0.00,-RA,OVC,0.00,WeatherDisplay:10.37,2013-01-14 03:13:00,
2013-01-13 20:18:00,8.8,2.8,30.05,WNW,302,0.0,0.0,76,0.00,-RA,OVC,0.00,WeatherDisplay:10.37,2013-01-14 03:18:00,
2013-01-13 20:23:00,8.8,3.1,30.05,WNW,302,1.1,1.1,77,0.00,-RA,OVC,0.00,WeatherDisplay:10.37,2013-01-14 03:23:00,
2013-01-13 20:28:00,8.7,3.2,30.05,WNW,302,0.0,0.0,78,0.00,-RA,OVC,0.00,WeatherDisplay:10.37,2013-01-14 03:28:00,
2013-01-13 20:33:00,8.6,3.1,30.04,WNW,302,0.0,0.0,78,0.00,-RA,OVC,0.00,WeatherDisplay:10.37,2013-01-14 03:33:00,
2013-01-13 20:38:00,8.6,3.4,30.04,WNW,302,0.0,0.0,79,0.00,-RA,OVC,0.00,WeatherDisplay:10.37,2013-01-14 03:38:00,
2013-01-13 20:43:00,8.5,3.3,30.04,WNW,302,0.0,0.0,79,0.00,-RA,OVC,0.00,WeatherDisplay:10.37,2013-01-14 03:43:00,
2013-01-13 20:48:00,8.3,3.1,30.04,WNW,302,0.0,0.0,79,0.00,-RA,OVC,0.00,WeatherDisplay:10.37,2013-01-14 03:48:00,
2013-01-13 20:53:00,8.2,3.0,30.04,WNW,302,0.0,0.0,79,0.00,-RA,OVC,0.00,WeatherDisplay:10.37,2013-01-14 03:53:00,
2013-01-13 20:58:00,8.1,3.2,30.04,WNW,302,0.0,0.0,80,0.00,-RA,OVC,0.00,WeatherDisplay:10.37,2013-01-14 03:58:00,
2013-01-13 21:03:00,8.1,3.2,30.04,WNW,302,0.0,0.0,80,0.00,-RA,OVC,0.00,WeatherDisplay:10.37,2013-01-14 04:03:00,
2013-01-13 21:08:00,7.9,3.0,30.04,WNW,302,0.0,0.0,80,0.00,-RA,OVC,0.00,WeatherDisplay:10.37,2013-01-14 04:08:00,
2013-01-13 21:13:00,7.8,2.9,30.04,WNW,302,0.0,0.0,80,0.00,-RA,OVC,0.00,WeatherDisplay:10.37,2013-01-14 04:13:00,
2013-01-13 21:18:00,7.7,2.8,30.04,WNW,302,0.0,0.0,80,0.00,-RA,OVC,0.00,WeatherDisplay:10.37,2013-01-14 04:18:00,
2013-01-13 21:23:00,7.6,3.0,30.04,WNW,302,0.0,0.0,81,0.00,-RA,OVC,0.00,WeatherDisplay:10.37,2013-01-14 04:23:00,
2013-01-13 21:28:00,7.5,2.9,30.04,WNW,302,0.0,0.0,81,0.00,-RA,OVC,0.00,WeatherDisplay:10.37,2013-01-14 04:28:00,
2013-01-13 21:33:00,7.4,2.8,30.04,WNW,302,0.0,0.0,81,0.00,-RA,OVC,0.00,WeatherDisplay:10.37,2013-01-14 04:33:00,
2013-01-13 21:38:00,7.2,2.6,30.04,WNW,302,0.0,0.0,81,0.00,-RA,OVC,0.00,WeatherDisplay:10.37,2013-01-14 04:38:00,
2013-01-13 21:43:00,7.1,2.5,30.04,WNW,302,0.0,0.0,81,0.00,-RA,OVC,0.00,WeatherDisplay:10.37,2013-01-14 04:43:00,
2013-01-13 21:48:00,6.9,2.6,30.04,WNW,302,0.0,0.0,82,0.00,-RA,OVC,0.00,WeatherDisplay:10.37,2013-01-14 04:48:00,
2013-01-13 21:53:00,6.7,2.4,30.03,WNW,302,0.0,0.0,82,0.00,-RA,OVC,0.00,WeatherDisplay:10.37,2013-01-14 04:53:00,
2013-01-13 21:58:00,6.4,1.8,30.03,WNW,302,0.0,0.0,81,0.00,-RA,OVC,0.00,WeatherDisplay:10.37,2013-01-14 04:58:00,
2013-01-13 22:01:00,6.3,1.7,30.03,WNW,302,0.0,0.0,81,0.00,-RA,OVC,0.00,WeatherDisplay:10.37,2013-01-14 05:01:00,
2013-01-13 22:03:00,6.2,1.6,30.03,WNW,302,0.0,0.0,81,0.00,-RA,OVC,0.00,WeatherDisplay:10.37,2013-01-14 05:03:00,
2013-01-13 22:04:00,6.1,1.5,30.03,WNW,302,0.0,0.0,81,0.00,-RA,OVC,0.00,WeatherDisplay:10.37,2013-01-14 05:04:00,
2013-01-13 22:09:00,5.9,1.3,30.03,WNW,302,0.0,0.0,81,0.00,-RA,OVC,0.00,WeatherDisplay:10.37,2013-01-14 05:09:00,
2013-01-13 22:14:00,5.6,1.0,30.03,WNW,302,0.0,0.0,81,0.00,-RA,OVC,0.00,WeatherDisplay:10.37,2013-01-14 05:14:00,
2013-01-13 22:19:00,5.4,1.1,30.03,WNW,302,0.0,0.0,82,0.00,-RA,OVC,0.00,WeatherDisplay:10.37,2013-01-14 05:19:00,
2013-01-13 22:24:00,5.3,1.3,30.03,WNW,302,0.0,0.0,83,0.00,-RA,OVC,0.00,WeatherDisplay:10.37,2013-01-14 05:24:00,
2013-01-13 22:29:00,5.2,1.2,30.03,WNW,302,0.0,0.0,83,0.00,-RA,OVC,0.00,WeatherDisplay:10.37,2013-01-14 05:29:00,
2013-01-13 22:34:00,5.2,1.2,30.03,WNW,302,0.0,0.0,83,0.00,-RA,OVC,0.00,WeatherDisplay:10.37,2013-01-14 05:34:00,
2013-01-13 22:39:00,5.0,1.0,30.03,WNW,302,0.0,0.0,83,0.00,-RA,OVC,0.00,WeatherDisplay:10.37,2013-01-14 05:39:00,
2013-01-13 22:44:00,4.9,0.9,30.03,WNW,302,0.0,0.0,83,0.00,-RA,OVC,0.00,WeatherDisplay:10.37,2013-01-14 05:44:00,
2013-01-13 22:49:00,4.8,0.8,30.03,WNW,302,0.0,0.0,83,0.00,-RA,OVC,0.00,WeatherDisplay:10.37,2013-01-14 05:49:00,
2013-01-13 22:54:00,4.7,0.7,30.03,WNW,302,0.0,0.0,83,0.00,-RA,OVC,0.00,WeatherDisplay:10.37,2013-01-14 05:54:00,
2013-01-13 22:59:00,4.6,0.6,30.03,WNW,302,0.0,0.0,83,0.00,-RA,OVC,0.00,WeatherDisplay:10.37,2013-01-14 05:59:00,
2013-01-13 23:04:00,4.5,0.5,30.03,WNW,302,0.0,0.0,83,0.00,-RA,OVC,0.00,WeatherDisplay:10.37,2013-01-14 06:04:00,
2013-01-13 23:09:00,4.3,0.0,30.03,WNW,302,0.0,0.0,82,0.00,-RA,OVC,0.00,WeatherDisplay:10.37,2013-01-14 06:09:00,
2013-01-13 23:14:00,4.2,0.2,30.03,WNW,302,0.0,0.0,83,0.00,-RA,OVC,0.00,WeatherDisplay:10.37,2013-01-14 06:14:00,
2013-01-13 23:19:00,4.1,0.1,30.03,WNW,302,0.0,0.0,83,0.00,-RA,OVC,0.00,WeatherDisplay:10.37,2013-01-14 06:19:00,
2013-01-13 23:24:00,4.0,0.0,30.03,WNW,302,0.0,0.0,83,0.00,-RA,OVC,0.00,WeatherDisplay:10.37,2013-01-14 06:24:00,
2013-01-13 23:29:00,3.9,-0.1,30.03,WNW,302,0.0,0.0,83,0.00,-RA,OVC,0.00,WeatherDisplay:10.37,2013-01-14 06:29:00,
2013-01-13 23:34:00,3.9,-0.1,30.03,WNW,302,0.0,0.0,83,0.00,-RA,OVC,0.00,WeatherDisplay:10.37,2013-01-14 06:34:00,
2013-01-13 23:39:00,3.9,-0.1,30.03,WNW,302,0.0,0.0,83,0.00,-RA,OVC,0.00,WeatherDisplay:10.37,2013-01-14 06:39:00,
2013-01-13 23:44:00,3.8,-0.2,30.03,WNW,302,0.0,0.0,83,0.00,-RA,OVC,0.00,WeatherDisplay:10.37,2013-01-14 06:44:00,
2013-01-13 23:49:00,3.8,-0.2,30.03,WNW,302,0.0,0.0,83,0.00,-RA,OVC,0.00,WeatherDisplay:10.37,2013-01-14 06:49:00,
2013-01-13 23:54:00,3.8,-0.2,30.03,WNW,302,0.0,0.0,83,0.00,-RA,OVC,0.00,WeatherDisplay:10.37,2013-01-14 06:54:00,
2013-01-13 23:59:00,3.7,-0.3,30.03,WNW,302,0.0,0.0,83,0.00,-RA,OVC,0.00,WeatherDisplay:10.37,2013-01-14 06:59:00,